[[{"header":{"parameterUnit":"m.s-1","parameterCategory":1,"la1":30.2991,"la2":30.254,"lo1":-89.0895,"lo2":-89.0444,"dy":0.0017,"dx":0.0017,"nx":28,"ny":28,"refTime":"2024-08-10T15:00:00:Z","depth":0,"parameterNumber":2,"parameterNumberName":"U-component_of_WINDS"},"data":[0,0,0,0,0,0,0,0,0,0,0,0,0,0,0,0,0,0,0,0,0,0,0,0,0,0,0,0,0,0,0,0,0,0,0,0,0,0,0,0,0,0,0,0,0,0,0,0,0,0,0,0,0,0,0,0,0,0,-1.1136,-1.1137,0,-1.1182,-1.1183,-1.1184,-1.1144,-1.1142,-1.1141,-1.1139,-1.1189,-1.1192,-1.1195,0,0,0,0,0,0,0,0,0,0,0,0,0,-1.1014,-1.1016,-1.1136,-1.1137,-1.1137,-1.1182,-1.1183,-1.1184,-1.1144,-1.1142,-1.114,-1.1138,-1.1188,-1.1192,-1.1195,0,0,0,0,0,0,0,0,0,0,0,0,0,-1.1064,-1.1017,-1.1136,-1.1123,-1.1122,-1.1182,-1.1183,-1.1184,-1.1145,-1.1142,-1.114,-1.1138,-1.1187,-1.1191,-1.1195,-1.1271,0,0,-1.1209,-1.121,0,0,0,0,0,0,0,0,-1.1062,-1.1069,-1.1124,-1.1124,-1.1123,-1.1155,-1.1158,-1.1213,-1.1145,-1.1136,-1.1139,-1.1136,-1.118,-1.1185,-1.1199,-1.1274,-1.1276,-1.1209,-1.1212,-1.1213,-1.1215,0,0,0,0,0,0,0,-1.1058,-1.1067,-1.1154,-1.1125,-1.1125,-1.1115,-1.1119,-1.1168,-1.1172,-1.1137,-1.1134,-1.114,-1.1179,-1.1195,-1.12,-1.1277,-1.1209,-1.1213,-1.1215,-1.1217,-1.1414,-1.1416,0,0,0,0,0,0,-1.1056,-1.1064,-1.1153,-1.1156,-1.1086,-1.1119,-1.1124,-1.1147,-1.1171,-1.1172,-1.1142,-1.1138,-1.1189,-1.1195,-1.1201,-1.129,-1.1213,-1.1217,-1.122,-1.1411,-1.1415,-1.1417,0,0,0,0,0,0,-1.1053,-1.1064,-1.1151,-1.1109,-1.112,-1.1124,-1.115,-1.115,-1.1165,-1.1175,-1.1175,-1.1158,-1.1187,-1.1195,-1.1254,-1.1292,-1.1219,-1.1223,-1.1408,-1.1412,-1.1416,-1.147,0,0,0,0,0,0,-1.105,-1.1063,-1.1092,-1.111,-1.1122,-1.1203,-1.1153,-1.1152,-1.1172,-1.1167,-1.1189,-1.1191,-1.1186,-1.1247,-1.1258,-1.1296,-1.1227,-1.1405,-1.141,-1.1415,-1.1465,-1.1476,-1.1484,0,0,0,0,0,-1.1046,-1.1107,-1.1094,-1.1105,-1.1158,-1.1205,-1.1212,-1.1204,-1.1176,-1.1205,-1.121,-1.119,-1.1286,-1.1254,-1.1265,-1.1305,-1.1402,-1.1409,-1.1414,-1.1461,-1.1473,-1.1484,0,0,0,0,0,0,-1.1095,-1.1109,-1.1095,-1.1164,-1.1183,-1.1198,-1.1235,-1.1218,-1.1247,-1.1242,-1.1232,-1.1237,-1.1298,-1.1308,-1.1272,-1.1379,-1.1339,-1.1348,-1.1371,-1.1383,-1.1392,-1.1389,-1.123,0,0,0,0,0,-1.1114,-1.115,-1.1161,-1.122,-1.123,-1.1231,-1.1251,-1.1243,-1.1264,-1.1272,-1.1282,-1.1303,-1.1337,-1.1361,-1.1393,-1.1466,-1.1469,-1.1499,-1.1509,-1.1517,-1.1524,-1.1561,-1.1574,-1.1437,-1.1437,-1.1437,0,0,-1.1153,-1.1165,-1.1189,-1.123,-1.1244,-1.1282,-1.1238,-1.1281,-1.1309,-1.1279,-1.1334,-1.1342,-1.1364,-1.143,-1.1459,-1.144,-1.1563,-1.1524,-1.1531,-1.1534,-1.1569,-1.1582,-1.1593,-1.1441,-1.144,-1.144,0,0,-1.1244,-1.1257,-1.1307,-1.1322,-1.1343,-1.1343,-1.1355,-1.1372,-1.1375,-1.143,-1.1408,-1.1441,-1.1501,-1.1518,-1.1534,-1.1628,-1.161,-1.1639,-1.169,-1.1726,-1.1737,-1.1747,-1.1779,-1.1791,-1.1646,-1.1647,-1.1647,0,-1.129,-1.1346,-1.1335,-1.1379,-1.1397,-1.137,-1.142,-1.1435,-1.1467,-1.148,-1.1457,-1.153,-1.1544,-1.1612,-1.1634,-1.1649,-1.1661,-1.1637,-1.1736,-1.1746,-1.1755,-1.1785,-1.1798,-1.165,-1.165,-1.1649,-1.1649,0,-1.1401,-1.144,-1.1478,-1.1508,-1.153,-1.1577,-1.1573,-1.1597,-1.1587,-1.1588,-1.1644,-1.1658,-1.1692,-1.1708,-1.1699,-1.1774,-1.1761,-1.1738,-1.1698,-1.1771,-1.18,-1.1812,-1.1655,-1.1654,-1.1653,-1.1652,0,0,-1.1526,-1.1547,-1.1561,-1.1573,-1.1594,-1.1624,-1.1669,-1.1701,-1.1721,-1.1743,-1.178,-1.183,-1.1808,-1.1826,-1.1819,-1.1851,-1.1923,-1.1823,-1.1824,-1.1841,-1.2004,-1.2021,-1.2035,-1.191,-1.1913,-1.1914,-1.2002,0,-1.1617,-1.1694,-1.1685,-1.1759,-1.1794,-1.1767,-1.1806,-1.1823,-1.1826,-1.1856,-1.1858,-1.1893,-1.1862,-1.1873,-1.1903,-1.1908,-1.1955,-1.1901,-1.1944,-1.1946,-1.1939,-1.2051,-1.2069,-1.2151,-1.2013,-1.2015,-1.2017,0,-1.1734,-1.1758,-1.1835,-1.1848,-1.1863,-1.1898,-1.1925,-1.1955,-1.1973,-1.1972,-1.1991,-1.1977,-1.2021,-1.198,-1.2041,-1.2004,-1.2021,-1.2025,-1.2028,-1.2032,-1.1986,-1.2057,-1.2178,-1.219,-1.2035,-1.2033,-1.2032,0,-1.1816,-1.1868,-1.192,-1.1932,-1.1949,-1.1974,-1.1982,-1.1997,-1.2016,-1.2041,-1.2052,-1.2082,-1.2098,-1.2121,-1.2115,-1.2086,-1.2176,-1.2135,-1.2176,-1.2177,-1.2197,-1.2196,-1.2322,-1.2209,-1.2209,-1.2208,-1.2208,0,-1.1918,-1.1966,-1.1957,-1.1989,-1.2042,-1.203,-1.2082,-1.2087,-1.2101,-1.2133,-1.2112,-1.2143,-1.2134,-1.2164,-1.216,-1.2209,-1.2217,-1.2217,-1.2216,-1.2219,-1.2219,-1.223,-1.2224,-1.2212,-1.2211,-1.221,-1.221,0,-1.2019,-1.2015,-1.207,-1.208,-1.2084,-1.2122,-1.2131,-1.2161,-1.2161,-1.2202,-1.2211,-1.2211,-1.2245,-1.2241,-1.228,-1.2277,-1.2338,-1.233,-1.2332,-1.233,-1.2371,-1.2367,-1.2508,-1.2526,-1.2403,-1.2404,-1.2405,0,-1.2084,-1.212,-1.2134,-1.2153,-1.2163,-1.2195,-1.2214,-1.2203,-1.2224,-1.2245,-1.2272,-1.2304,-1.2329,-1.2385,-1.2389,-1.2418,-1.2409,-1.2457,-1.2414,-1.2415,-1.2409,-1.2406,-1.2409,-1.2465,-1.2467,-1.2468,-1.2469,0,-1.22,-1.2196,-1.2223,-1.2249,-1.2272,-1.2293,-1.2311,-1.2328,-1.2319,-1.2343,-1.2377,-1.2396,-1.2434,-1.2466,-1.2493,-1.2501,-1.2484,-1.2482,-1.2493,-1.2497,-1.2496,-1.2495,-1.2355,-1.2479,-1.2478,-1.2477,-1.2477,-1.2476,-1.2284,-1.2314,-1.2328,-1.2359,-1.2371,-1.2388,-1.2416,-1.2418,-1.2446,-1.2476,-1.2468,-1.2506,-1.2521,-1.2555,-1.2566,-1.2595,-1.2578,-1.2594,-1.2598,-1.2602,-1.2606,-1.2491,-1.26,-1.26,-1.26,-1.2599,-1.2599,0,-1.2398,-1.2405,-1.2433,-1.2459,-1.2482,-1.2462,-1.2481,-1.2502,-1.2536,-1.2551,-1.2575,-1.2613,-1.2643,-1.2648,-1.2676,-1.2699,-1.2691,-1.2707,-1.2704,-1.2706,-1.2621,-1.2608,-1.2712,-1.2712,-1.2712,-1.2712,-1.2712,-1.2712,-1.246,-1.2509,-1.2506,-1.256,-1.2566,-1.2603,-1.2615,-1.263,-1.2642,-1.2685,-1.2709,-1.2712,-1.2722,-1.2751,-1.2777,-1.2777,-1.2788,-1.2807,-1.2804,-1.2724,-1.2713,-1.2702,-1.269,-1.281,-1.281,-1.2887,-1.2888,-1.2888]},{"header":{"parameterUnit":"m.s-1","parameterCategory":1,"la1":30.2991,"la2":30.254,"lo1":-89.0895,"lo2":-89.0444,"dy":0.0017,"dx":0.0017,"nx":28,"ny":28,"refTime":"2024-08-10T15:00:00:Z","depth":0,"parameterNumber":3,"parameterNumberName":"V-component_of_WINDS"},"data":[0,0,0,0,0,0,0,0,0,0,0,0,0,0,0,0,0,0,0,0,0,0,0,0,0,0,0,0,0,0,0,0,0,0,0,0,0,0,0,0,0,0,0,0,0,0,0,0,0,0,0,0,0,0,0,0,0,0,-3.9895,-3.9895,0,-3.995,-3.9951,-3.9951,-3.9893,-3.989,-3.9888,-3.9886,-3.9938,-3.9942,-3.9945,0,0,0,0,0,0,0,0,0,0,0,0,0,-3.9735,-3.9738,-3.9895,-3.9896,-3.9896,-3.995,-3.9951,-3.9951,-3.9893,-3.989,-3.9887,-3.9885,-3.9937,-3.9941,-3.9946,0,0,0,0,0,0,0,0,0,0,0,0,0,-3.9799,-3.9739,-3.9895,-3.9874,-3.9872,-3.995,-3.9951,-3.9952,-3.9894,-3.989,-3.9887,-3.9884,-3.9936,-3.9941,-3.9946,-4.0046,0,0,-3.9962,-3.9964,0,0,0,0,0,0,0,0,-3.9795,-3.9805,-3.9876,-3.9875,-3.9874,-3.9911,-3.9913,-3.9983,-3.9894,-3.9885,-3.9886,-3.9882,-3.9932,-3.9937,-3.9955,-4.0048,-4.0051,-3.9963,-3.9966,-3.9968,-3.997,0,0,0,0,0,0,0,-3.9791,-3.9802,-3.9916,-3.9877,-3.9876,-3.986,-3.9865,-3.9926,-3.9927,-3.9886,-3.9882,-3.9889,-3.9931,-3.995,-3.9956,-4.0051,-3.9963,-3.9967,-3.997,-3.9972,-4.0228,-4.0232,0,0,0,0,0,0,-3.9789,-3.9799,-3.9915,-3.9918,-3.9826,-3.9866,-3.9872,-3.9902,-3.9926,-3.9926,-3.9892,-3.9886,-3.9943,-3.995,-3.9957,-4.0075,-3.9968,-3.9973,-3.9976,-4.0225,-4.0229,-4.0233,0,0,0,0,0,0,-3.9786,-3.98,-3.9912,-3.9857,-3.987,-3.9872,-3.9907,-3.9905,-3.9925,-3.9931,-3.993,-3.9912,-3.994,-3.995,-4.0024,-4.0076,-3.9975,-3.998,-4.0221,-4.0226,-4.0231,-4.0311,0,0,0,0,0,0,-3.9782,-3.98,-3.9838,-3.9859,-3.9874,-3.998,-3.991,-3.9909,-3.9934,-3.9927,-3.9949,-3.995,-3.9938,-4.0017,-4.003,-4.0081,-3.9984,-4.0216,-4.0223,-4.023,-4.0304,-4.0319,-4.0331,0,0,0,0,0,-3.9776,-3.9858,-3.9841,-3.9855,-3.9922,-3.9983,-3.9992,-3.9978,-3.9939,-3.9977,-3.9981,-3.9949,-4.0068,-4.0025,-4.0039,-4.0093,-4.0213,-4.0221,-4.0229,-4.0298,-4.0316,-4.0331,0,0,0,0,0,0,-3.9842,-3.986,-3.9841,-3.9932,-3.9957,-3.9973,-4.0021,-3.9998,-4.0033,-4.0025,-4.0005,-4.0011,-4.009,-4.0099,-4.005,-4.019,-4.0134,-4.0145,-4.0181,-4.0198,-4.0212,-4.0208,-3.9989,0,0,0,0,0,-3.9867,-3.9917,-3.9929,-4.0008,-4.0022,-4.002,-4.0045,-4.0033,-4.0057,-4.0067,-4.0076,-4.01,-4.0143,-4.0171,-4.0211,-4.0305,-4.0308,-4.0349,-4.0363,-4.0374,-4.0384,-4.0433,-4.0451,-4.026,-4.026,-4.026,0,0,-3.9919,-3.9935,-3.9967,-4.0022,-4.0039,-4.0089,-4.0029,-4.0084,-4.0121,-4.0075,-4.0146,-4.0154,-4.0179,-4.0264,-4.0301,-4.0273,-4.0437,-4.0384,-4.0393,-4.0397,-4.0443,-4.0462,-4.0478,-4.0266,-4.0265,-4.0264,0,0,-4.004,-4.0058,-4.0125,-4.0144,-4.0172,-4.0171,-4.0187,-4.0207,-4.0211,-4.0283,-4.0249,-4.0292,-4.0366,-4.0385,-4.0405,-4.0533,-4.0505,-4.0547,-4.0618,-4.0666,-4.0681,-4.0694,-4.0739,-4.0756,-4.0556,-4.0557,-4.0557,0,-4.0101,-4.0176,-4.0162,-4.0221,-4.0245,-4.0208,-4.0275,-4.0294,-4.0333,-4.035,-4.0318,-4.0411,-4.0425,-4.0513,-4.0545,-4.0562,-4.0579,-4.0543,-4.0681,-4.0694,-4.0706,-4.0748,-4.0765,-4.0561,-4.0561,-4.056,-4.056,0,-4.0249,-4.0302,-4.0353,-4.0393,-4.0423,-4.0486,-4.048,-4.0512,-4.0497,-4.0498,-4.0571,-4.0587,-4.0629,-4.0649,-4.0635,-4.0736,-4.0717,-4.0684,-4.0627,-4.0729,-4.0768,-4.0785,-4.0568,-4.0567,-4.0565,-4.0564,0,0,-4.0411,-4.0444,-4.0463,-4.048,-4.0509,-4.0549,-4.0609,-4.0652,-4.0679,-4.0707,-4.0757,-4.0821,-4.079,-4.0812,-4.0799,-4.0842,-4.0942,-4.0803,-4.0803,-4.0828,-4.1053,-4.1077,-4.1096,-4.0924,-4.0927,-4.0929,-4.105,0,-4.0532,-4.0638,-4.0628,-4.0728,-4.0776,-4.0741,-4.0794,-4.0816,-4.0819,-4.0859,-4.0862,-4.0907,-4.0864,-4.0877,-4.0918,-4.0921,-4.0987,-4.0912,-4.0968,-4.097,-4.0962,-4.1117,-4.1143,-4.1256,-4.1066,-4.1068,-4.107,0,-4.0686,-4.0722,-4.0828,-4.0849,-4.0868,-4.0916,-4.0954,-4.0993,-4.1018,-4.1016,-4.1042,-4.1022,-4.1081,-4.1024,-4.1105,-4.1055,-4.1077,-4.1082,-4.1086,-4.1089,-4.1025,-4.1123,-4.1292,-4.1308,-4.1094,-4.1092,-4.1091,0,-4.0793,-4.0867,-4.094,-4.0956,-4.0983,-4.1017,-4.1029,-4.105,-4.1077,-4.1109,-4.1126,-4.1165,-4.1186,-4.1216,-4.1207,-4.1166,-4.1289,-4.1231,-4.1288,-4.1289,-4.1315,-4.1313,-4.1488,-4.1331,-4.1331,-4.1331,-4.133,0,-4.0928,-4.0994,-4.0988,-4.1032,-4.1105,-4.1091,-4.1163,-4.1171,-4.119,-4.1235,-4.1207,-4.1249,-4.1235,-4.1275,-4.1268,-4.1336,-4.1346,-4.1345,-4.1342,-4.1347,-4.1347,-4.136,-4.1352,-4.1335,-4.1334,-4.1333,-4.1333,0,-4.1058,-4.1058,-4.1134,-4.1154,-4.116,-4.1213,-4.1229,-4.127,-4.1271,-4.1327,-4.134,-4.1341,-4.1388,-4.1382,-4.1434,-4.1429,-4.1512,-4.15,-4.1504,-4.1501,-4.1558,-4.1553,-4.1747,-4.1771,-4.16,-4.1602,-4.1603,0,-4.1144,-4.1194,-4.1219,-4.1248,-4.1263,-4.131,-4.1336,-4.1325,-4.1354,-4.1386,-4.1423,-4.1468,-4.1503,-4.1579,-4.1583,-4.1623,-4.1611,-4.1676,-4.1616,-4.1619,-4.161,-4.1607,-4.1611,-4.1687,-4.1689,-4.1691,-4.1692,0,-4.1296,-4.1293,-4.1334,-4.1375,-4.1408,-4.1439,-4.1467,-4.1492,-4.1483,-4.1517,-4.1565,-4.1592,-4.1646,-4.169,-4.1727,-4.1738,-4.1714,-4.1711,-4.1726,-4.1731,-4.1731,-4.1731,-4.1535,-4.1706,-4.1705,-4.1704,-4.1703,-4.1703,-4.1405,-4.1448,-4.1473,-4.1519,-4.1539,-4.1567,-4.1606,-4.1613,-4.1653,-4.1697,-4.1688,-4.1742,-4.1764,-4.1812,-4.1827,-4.1868,-4.1844,-4.1866,-4.1872,-4.1877,-4.1883,-4.1726,-4.1875,-4.1875,-4.1874,-4.1874,-4.1874,0,-4.1554,-4.1569,-4.1612,-4.1653,-4.1689,-4.1665,-4.1695,-4.1726,-4.1774,-4.1798,-4.1834,-4.1889,-4.1932,-4.194,-4.198,-4.2012,-4.2001,-4.2023,-4.2019,-4.2022,-4.1903,-4.1885,-4.203,-4.203,-4.203,-4.203,-4.203,-4.203,-4.1636,-4.1707,-4.1707,-4.1787,-4.1801,-4.1855,-4.1874,-4.1898,-4.1917,-4.1981,-4.2017,-4.2022,-4.204,-4.2081,-4.2119,-4.212,-4.2136,-4.2161,-4.2158,-4.2046,-4.2031,-4.2016,-4.1999,-4.2165,-4.2165,-4.2273,-4.2274,-4.2275]}]]